This demonstration page uses our WeatherBlox Daily Observations layout. Learn more.

Left ArrowRight Arrow

Hourly Observations for May 27, 2022

Temp ( °F °C ) Dew Point ( °F °C ) Humidity (%) Winds ( mph kmh ) Pressure ( in mb ) Visibility ( mi km ) Precip ( " mm )
12:53 am 00:53 Mostly Cloudy 64 17.8 60 15.6 87 87 SSW 5 7 29.85 1011 10 16 0.00 0.00
1:53 am 01:53 Partly Cloudy 62 16.7 59 15 90 90 WSW 5 7 29.85 1011 10 16 0.00 0.00
2:53 am 02:53 Clear 62 16.7 59 15 90 90 W 7 11 29.85 1011 10 16 0.00 0.00
3:53 am 03:53 Mostly Cloudy 61 16.1 58 14.4 90 90 SW 6 9 29.85 1011 10 16 0.00 0.00
4:53 am 04:53 Clear 60 15.6 57 13.9 90 90 WSW 5 7 29.85 1011 10 16 0.00 0.00
5:53 am 05:53 Sunny 60 15.6 56 13.3 86 86 W 7 11 29.87 1012 10 16 0.00 0.00
6:53 am 06:53 Sunny 62 16.7 56 13.3 80 80 W 10 17 29.89 1012 10 16 0.00 0.00
7:53 am 07:53 Sunny 64 17.8 57 13.9 78 78 WSW 10 17 29.89 1012 10 16 0.00 0.00
8:53 am 08:53 Mostly Cloudy 67 19.4 58 14.4 73 73 W 10 17 29.91 1013 10 16 0.00 0.00
9:53 am 09:53 Cloudy 65 18.3 57 13.9 76 76 WNW 14 22 29.91 1013 10 16 0.00 0.00
10:53 am 10:53 Cloudy 68 20 58 14.4 70 70 WNW 12 19 29.92 1013 10 16 0.00 0.00
11:53 am 11:53 Mostly Cloudy 71 21.7 58 14.4 63 63 WNW 13 20 29.92 1013 10 16 0.00 0.00
12:28 pm 12:28 Cloudy 69 20.6 57 13.9 66 66 W 13 20 29.92 1013 10 16 0.00 0.00
12:45 pm 12:45 Cloudy 71 21.7 58 14.4 63 63 W 12 19 29.91 1013 10 16 0.00 0.00
12:53 pm 12:53 Cloudy 70 21.1 58 14.4 66 66 WSW 10 17 29.91 1013 10 16 0.00 0.00
1:53 pm 13:53 Cloudy 71 21.7 58 14.4 63 63 W 12 19 29.91 1013 10 16 0.00 0.00
2:53 pm 14:53 Cloudy 70 21.1 58 14.4 66 66 W 12 19 29.91 1013 10 16 0.00 0.00
3:53 pm 15:53 Cloudy 71 21.7 58 14.4 63 63 W 9 15 29.91 1013 10 16 0.00 0.00
4:53 pm 16:53 Cloudy 72 22.2 59 15 64 64 W 8 13 29.91 1013 10 16 0.00 0.00
5:53 pm 17:53 Cloudy 71 21.7 58 14.4 63 63 W 9 15 29.91 1013 10 16 0.00 0.00
6:53 pm 18:53 Cloudy 70 21.1 59 15 68 68 NW 7 11 29.92 1013 10 16 0.00 0.00
7:53 pm 19:53 Mostly Sunny 67 19.4 59 15 76 76 NW 5 7 29.93 1014 10 16 0.00 0.00
8:53 pm 20:53 Clear 64 17.8 58 14.4 81 81 NW 5 7 29.94 1014 10 16 0.00 0.00
9:53 pm 21:53 Mostly Cloudy 64 17.8 59 15 84 84 Calm 29.96 1015 10 16 0.00 0.00
10:53 pm 22:53 Cloudy 65 18.3 59 15 81 81 Calm 29.96 1014 10 16 0.00 0.00
11:53 pm 23:53 Mostly Cloudy 63 17.2 58 14.4 84 84 Calm 29.96 1015 10 16 0.00 0.00

Powered by AerisWeather